Hourly Data Report for September 12, 2017

All times are specified in Local Standard Time (LST). Add 1 hour to adjust for Daylight Saving Time where and when it is observed.

PENTICTON A
BRITISH COLUMBIA

49°27'45.000" N
119°36'08.000" W
344.40 m
1126146
71889
YYF

Download Data

Hourly Data (September 2017)
Hourly Data Report for September 12, 2017
Temp Definition
°C
Dew Point Temp Definition
°C
Rel Hum Definition
%
Wind Dir Definition
10's deg

Wind Spd Definition
km/h
Visibility Definition
km
Stn Press Definition
kPa
Hmdx Definition


Wind Chill Definition


Weather Definition


TIME
00:00 Legend Double Dagger 14.3 5.9 57 36 5 24.1 97.42     LegendNANA
01:00 Legend Double Dagger 14.2 6.3 59 18 3 24.1 97.43     Mostly Cloudy
02:00 Legend Double Dagger 13.3 5.4 59 36 1 24.1 97.39     LegendNANA
03:00 Legend Double Dagger 13.3 6.1 61 36 2 24.1 97.37     LegendNANA
04:00 Legend Double Dagger 10.5 4.4 66 36 1 24.1 97.36     Mostly Cloudy
05:00 Legend Double Dagger 10.2 5.6 73 36 6 24.1 97.34     LegendNANA
06:00 Legend Double Dagger 11.5 6.2 70 10 3 24.1 97.37     LegendNANA
07:00 Legend Double Dagger 14.4 9.3 71 36 1 24.1 97.32     Mostly Cloudy
08:00 Legend Double Dagger 17.1 9.2 59 36 2 24.1 97.32     LegendNANA
09:00 Legend Double Dagger 18.3 10.5 60 19 5 24.1 97.26     LegendNANA
10:00 Legend Double Dagger 19.3 8.3 49 31 3 24.1 97.21     Cloudy
11:00 Legend Double Dagger 21.1 8.2 43 21 3 24.1 97.16     LegendNANA
12:00 Legend Double Dagger 22.2 7.1 37 17 11 24.1 97.02     LegendNANA
13:00 Legend Double Dagger 23.9 6.1 31 23 5 24.1 96.96     Mostly Cloudy
14:00 Legend Double Dagger 23.4 8.7 39 36 2 24.1 96.94     LegendNANA
15:00 Legend Double Dagger 22.6 9.7 43 34 9 24.1 96.94     LegendNANA
16:00 Legend Double Dagger 22.9 10.9 46 36 9 24.1 96.90 25   Mostly Cloudy
17:00 Legend Double Dagger 22.0 13.2 57 34 11 24.1 96.86 25   LegendNANA
18:00 Legend Double Dagger 20.4 14.0 66 35 10 24.1 96.83     LegendNANA
19:00 Legend Double Dagger 19.7 10.8 56 34 16 24.1 96.86     Mostly Cloudy
20:00 Legend Double Dagger 21.0 7.7 42 33 12 24.1 96.87     LegendNANA
21:00 Legend Double Dagger 19.0 5.4 41 1 7 24.1 96.91     LegendNANA
22:00 Legend Double Dagger 18.1 4.7 41 29 7 24.1 96.93     Mainly Clear
23:00 Legend Double Dagger 18.7 0.8 30 34 16 24.1 97.00     LegendNANA

Notes on Data Quality.

Legend

  • E = Estimated
  • M = Missing
  • NA = Not Available
  • ‡ = Partner data that is not subject to review by the National Climate Archives
Date modified: